When you browse on this site, cookies collect data to enhance your experience and personalize the content and advertising you see.
Visit our Privacy Policy to learn more. By continuing to use the site, you agree to this use of cookies and data.
  • In Belgien
  • Länderverzeichnis
  • Für 7 Tage
  • Wassertemperatur
  • Wetterkarte
  • Widgets
  • user-avatar
    Anmelden

    Stündliche Wetter Canberra

    Heute, 13 Dezember, Freitag

    Zeit Temperatur Niederschläge Wind Luftdruck Luftfeuchtigkeit
    00:00 +13°C° 0 mm 2 m/S 709 mmHg 85%
    01:00 +13°C° 0 mm 2 m/S 708 mmHg 85%
    02:00 +13°C° 0 mm 2 m/S 708 mmHg 86%
    03:00 +13°C° 0 mm 2 m/S 708 mmHg 86%
    04:00 +13°C° 0 mm 2 m/S 708 mmHg 87%
    05:00 +14°C° 0 mm 2 m/S 708 mmHg 82%
    06:00 +15°C° 0 mm 2 m/S 708 mmHg 77%
    07:00 +16°C° 0 mm 2 m/S 708 mmHg 72%
    08:00 +17°C° 0 mm 2 m/S 708 mmHg 66%
    09:00 +20°C° 0 mm 1 m/S 708 mmHg 59%
    10:00 +21°C° 0 mm 1 m/S 708 mmHg 52%
    11:00 +23°C° 0 mm 1 m/S 708 mmHg 44%
    12:00 +26°C° 0 mm 2 m/S 708 mmHg 36%
    13:00 +28°C° 0 mm 2 m/S 708 mmHg 28%
    14:00 +28°C° 0 mm 3 m/S 707 mmHg 29%
    15:00 +27°C° 0 mm 3 m/S 707 mmHg 30%
    16:00 +27°C° 0 mm 4 m/S 706 mmHg 32%
    17:00 +23°C° 0 mm 4 m/S 706 mmHg 44%
    18:00 +20°C° 0 mm 4 m/S 706 mmHg 57%
    19:00 +17°C° 0 mm 3 m/S 706 mmHg 70%
    20:00 +14°C° 0 mm 3 m/S 707 mmHg 77%
    21:00 +14°C° 0 mm 2 m/S 707 mmHg 83%
    22:00 +13°C° 0 mm 2 m/S 707 mmHg 89%
    23:00 +13°C° 0 mm 1 m/S 707 mmHg 88%

    Morgen, 14 Dezember, Samstag

    Zeit Temperatur Niederschläge Wind Luftdruck Luftfeuchtigkeit
    00:00 +13°C° 0 mm 1 m/S 707 mmHg 87%
    01:00 +13°C° 0 mm 1 m/S 707 mmHg 86%
    02:00 +13°C° 0 mm 1 m/S 706 mmHg 88%
    03:00 +11°C° 0 mm 0 m/S 706 mmHg 90%
    04:00 +11°C° 0 mm 0 m/S 706 mmHg 92%
    05:00 +12°C° 0 mm 0 m/S 706 mmHg 84%
    06:00 +14°C° 0 mm 0 m/S 706 mmHg 77%
    07:00 +16°C° 0 mm 0 m/S 707 mmHg 69%
    08:00 +21°C° 0 mm 1 m/S 707 mmHg 56%
    09:00 +24°C° 0 mm 2 m/S 707 mmHg 44%
    10:00 +26°C° 0 mm 3 m/S 707 mmHg 32%
    11:00 +28°C° 0 mm 4 m/S 707 mmHg 27%
    12:00 +29°C° 0 mm 5 m/S 706 mmHg 23%
    13:00 +32°C° 0 mm 6 m/S 706 mmHg 18%
    14:00 +30°C° 0 mm 6 m/S 706 mmHg 20%
    15:00 +30°C° 0 mm 5 m/S 705 mmHg 22%
    16:00 +29°C° 0 mm 5 m/S 705 mmHg 23%
    17:00 +26°C° 0 mm 5 m/S 706 mmHg 39%
    18:00 +22°C° 0 mm 4 m/S 706 mmHg 54%
    19:00 +19°C° 0 mm 3 m/S 706 mmHg 69%
    20:00 +17°C° 0 mm 3 m/S 706 mmHg 77%
    21:00 +16°C° 0 mm 2 m/S 707 mmHg 86%
    22:00 +14°C° 0 mm 1 m/S 707 mmHg 94%
    23:00 +15°C° 0 mm 1 m/S 707 mmHg 94%

    übermorgen, 15 Dezember, Sonntag

    Zeit Temperatur Niederschläge Wind Luftdruck Luftfeuchtigkeit
    00:00 +15°C° 0 mm 1 m/S 706 mmHg 93%
    01:00 +15°C° 0 mm 1 m/S 706 mmHg 93%
    02:00 +15°C° 0 mm 1 m/S 706 mmHg 94%
    03:00 +13°C° 0 mm 0 m/S 705 mmHg 94%
    04:00 +13°C° 0 mm 0 m/S 705 mmHg 95%
    05:00 +15°C° 0 mm 1 m/S 705 mmHg 88%
    06:00 +16°C° 0 mm 1 m/S 706 mmHg 82%
    07:00 +18°C° 0 mm 1 m/S 706 mmHg 75%
    08:00 +21°C° 0 mm 2 m/S 706 mmHg 57%
    09:00 +25°C° 0 mm 3 m/S 706 mmHg 39%
    10:00 +28°C° 0 mm 5 m/S 706 mmHg 21%
    11:00 +29°C° 0 mm 5 m/S 705 mmHg 20%
    12:00 +29°C° 0 mm 6 m/S 705 mmHg 19%
    13:00 +30°C° 0 mm 7 m/S 704 mmHg 18%
    14:00 +30°C° 0 mm 7 m/S 704 mmHg 18%
    15:00 +30°C° 0 mm 7 m/S 704 mmHg 18%
    16:00 +30°C° 0 mm 7 m/S 703 mmHg 18%
    17:00 +28°C° 0 mm 5 m/S 704 mmHg 21%
    18:00 +26°C° 0 mm 4 m/S 704 mmHg 24%
    19:00 +25°C° 0 mm 3 m/S 704 mmHg 27%
    20:00 +23°C° 0 mm 2 m/S 704 mmHg 30%
    21:00 +20°C° 0 mm 2 m/S 704 mmHg 33%
    22:00 +18°C° 0 mm 2 m/S 704 mmHg 37%
    23:00 +18°C° 0 mm 1 m/S 704 mmHg 37%

    16 Dezember, Montag

    Zeit Temperatur Niederschläge Wind Luftdruck Luftfeuchtigkeit
    00:00 +16°C° 0 mm 1 m/S 704 mmHg 37%
    01:00 +15°C° 0 mm 1 m/S 704 mmHg 37%
    02:00 +14°C° 0 mm 1 m/S 704 mmHg 42%
    03:00 +13°C° 0 mm 1 m/S 704 mmHg 46%
    04:00 +13°C° 0 mm 1 m/S 704 mmHg 51%
    05:00 +14°C° 0 mm 1 m/S 705 mmHg 53%
    06:00 +16°C° 0 mm 1 m/S 706 mmHg 55%
    07:00 +18°C° 0 mm 2 m/S 707 mmHg 57%
    08:00 +20°C° 0 mm 2 m/S 707 mmHg 50%
    09:00 +23°C° 0 mm 2 m/S 708 mmHg 43%
    10:00 +25°C° 0 mm 2 m/S 708 mmHg 36%
    11:00 +27°C° 0 mm 2 m/S 708 mmHg 32%
    12:00 +29°C° 0 mm 2 m/S 708 mmHg 28%
    13:00 +31°C° 0 mm 2 m/S 708 mmHg 24%
    14:00 +30°C° 0 mm 3 m/S 708 mmHg 28%
    15:00 +28°C° 0 mm 5 m/S 708 mmHg 32%
    16:00 +27°C° 0 mm 6 m/S 708 mmHg 37%
    17:00 +23°C° 0 mm 6 m/S 708 mmHg 46%
    18:00 +20°C° 0 mm 5 m/S 709 mmHg 56%
    19:00 +17°C° 0 mm 4 m/S 709 mmHg 65%
    20:00 +14°C° 0 mm 4 m/S 710 mmHg 73%
    21:00 +12°C° 0 mm 3 m/S 710 mmHg 80%
    22:00 +11°C° 0 mm 3 m/S 711 mmHg 88%
    23:00 +10°C° 0 mm 2 m/S 711 mmHg 90%

    17 Dezember, Dienstag

    Zeit Temperatur Niederschläge Wind Luftdruck Luftfeuchtigkeit
    00:00 +9°C° 0 mm 2 m/S 710 mmHg 92%
    01:00 +10°C° 0 mm 1 m/S 710 mmHg 95%
    02:00 +9°C° 0 mm 1 m/S 710 mmHg 94%
    03:00 +9°C° 0 mm 1 m/S 710 mmHg 94%
    04:00 +9°C° 0 mm 1 m/S 710 mmHg 94%
    05:00 +12°C° 0 mm 1 m/S 711 mmHg 81%
    06:00 +14°C° 0 mm 1 m/S 711 mmHg 67%
    07:00 +18°C° 0 mm 1 m/S 712 mmHg 54%
    08:00 +22°C° 0 mm 1 m/S 712 mmHg 43%
    09:00 +25°C° 0 mm 1 m/S 712 mmHg 33%
    10:00 +29°C° 0 mm 1 m/S 713 mmHg 22%
    11:00 +31°C° 0 mm 1 m/S 712 mmHg 20%
    12:00 +33°C° 0 mm 1 m/S 712 mmHg 17%
    13:00 +35°C° 0 mm 2 m/S 712 mmHg 15%
    14:00 +36°C° 0 mm 2 m/S 711 mmHg 14%
    15:00 +35°C° 0 mm 1 m/S 711 mmHg 14%
    16:00 +35°C° 0 mm 1 m/S 711 mmHg 14%
    17:00 +34°C° 0 mm 2 m/S 711 mmHg 19%
    18:00 +30°C° 0 mm 2 m/S 711 mmHg 24%
    19:00 +28°C° 0 mm 2 m/S 711 mmHg 29%
    20:00 +25°C° 0 mm 2 m/S 711 mmHg 40%
    21:00 +21°C° 0 mm 2 m/S 711 mmHg 52%
    22:00 +18°C° 0 mm 2 m/S 711 mmHg 63%
    23:00 +18°C° 0 mm 1 m/S 711 mmHg 64%

    18 Dezember, Mittwoch

    Zeit Temperatur Niederschläge Wind Luftdruck Luftfeuchtigkeit
    00:00 +18°C° 0 mm 1 m/S 711 mmHg 66%
    01:00 +16°C° 0 mm 1 m/S 711 mmHg 67%
    02:00 +16°C° 0 mm 1 m/S 711 mmHg 66%
    03:00 +16°C° 0 mm 1 m/S 711 mmHg 65%
    04:00 +16°C° 0 mm 1 m/S 711 mmHg 64%
    05:00 +20°C° 0 mm 1 m/S 711 mmHg 54%
    06:00 +21°C° 0 mm 0 m/S 712 mmHg 44%
    07:00 +24°C° 0 mm 0 m/S 712 mmHg 34%
    08:00 +29°C° 0 mm 1 m/S 712 mmHg 29%
    09:00 +32°C° 0 mm 2 m/S 712 mmHg 23%
    10:00 +36°C° 0 mm 3 m/S 712 mmHg 17%
    11:00 +37°C° 0 mm 3 m/S 712 mmHg 16%
    12:00 +38°C° 0 mm 3 m/S 711 mmHg 15%
    13:00 +39°C° 0 mm 3 m/S 711 mmHg 14%
    14:00 +38°C° 0 mm 2 m/S 711 mmHg 15%
    15:00 +38°C° 0 mm 2 m/S 710 mmHg 16%
    16:00 +37°C° 0 mm 2 m/S 710 mmHg 17%
    17:00 +34°C° 0 mm 2 m/S 710 mmHg 23%
    18:00 +31°C° 0 mm 3 m/S 710 mmHg 28%
    19:00 +28°C° 0 mm 3 m/S 710 mmHg 34%
    20:00 +26°C° 0 mm 3 m/S 710 mmHg 36%
    21:00 +24°C° 0 mm 2 m/S 710 mmHg 38%
    22:00 +21°C° 0 mm 2 m/S 710 mmHg 40%
    23:00 +20°C° 0 mm 2 m/S 710 mmHg 40%
    Mehr zeigen